TimeEDT,TemperatureF,Dew PointF,Humidity,Sea Level PressureIn,VisibilityMPH,Wind Direction,Wind SpeedMPH,Gust SpeedMPH,PrecipitationIn,Events,Conditions,WindDirDegrees,DateUTC
12:58 AM,81.0,75.0,82,30.15,10.0,South,6.9,-,N/A,,Mostly Cloudy,180,2013-07-18 04:58:00
1:58 AM,80.2,75.4,85,30.14,10.0,SSW,5.8,-,N/A,,Overcast,210,2013-07-18 05:58:00
2:58 AM,79.3,75.6,88,30.13,10.0,West,4.6,-,N/A,,Overcast,260,2013-07-18 06:58:00
3:58 AM,78.3,75.4,91,30.12,10.0,West,4.6,-,N/A,,Clear,270,2013-07-18 07:58:00
4:58 AM,77.5,75.4,93,30.12,10.0,West,3.5,-,N/A,,Overcast,270,2013-07-18 08:58:00
5:58 AM,77.2,75.7,95,30.14,10.0,West,5.8,-,N/A,,Mostly Cloudy,260,2013-07-18 09:58:00
6:58 AM,77.0,75.4,95,30.14,10.0,West,3.5,-,N/A,,Scattered Clouds,270,2013-07-18 10:58:00
7:56 AM,77.0,75.2,94,30.16,10.0,NE,4.6,-,N/A,,Scattered Clouds,50,2013-07-18 11:56:00
8:23 AM,77.0,75.2,94,30.14,9.0,Variable,1.2,-,N/A,,Light Drizzle,0,2013-07-18 12:23:00
8:32 AM,77.0,75.2,94,30.14,10.0,West,2.3,-,N/A,,Overcast,260,2013-07-18 12:32:00
8:58 AM,77.9,74.8,90,30.14,10.0,West,3.5,-,0.00,,Overcast,280,2013-07-18 12:58:00
9:55 AM,82.4,75.2,79,30.14,10.0,WSW,3.5,-,N/A,,Partly Cloudy,240,2013-07-18 13:55:00
10:55 AM,86.0,75.2,70,30.14,10.0,Variable,1.2,-,N/A,,Clear,0,2013-07-18 14:55:00
11:55 AM,89.6,75.2,62,30.14,10.0,WSW,4.6,-,N/A,,Clear,240,2013-07-18 15:55:00
12:55 PM,89.6,73.4,59,30.13,10.0,SE,4.6,-,N/A,,Scattered Clouds,140,2013-07-18 16:55:00
1:58 PM,90.3,73.0,57,30.12,10.0,Variable,2.3,-,N/A,,Mostly Cloudy,0,2013-07-18 17:58:00
2:58 PM,88.9,74.5,62,30.09,10.0,NNW,3.5,-,N/A,,Mostly Cloudy,330,2013-07-18 18:58:00
3:25 PM,87.8,75.2,66,30.09,10.0,NW,9.2,-,N/A,Thunderstorm,Thunderstorm,310,2013-07-18 19:25:00
3:28 PM,87.8,75.2,66,30.09,10.0,NW,9.2,-,N/A,Rain-Thunderstorm,Light Thunderstorms and Rain,310,2013-07-18 19:28:00
3:39 PM,82.4,75.2,79,30.09,3.0,SW,20.7,29.9,N/A,Rain-Thunderstorm,Light Thunderstorms and Rain,220,2013-07-18 19:39:00
3:44 PM,78.8,73.4,83,30.09,2.5,South,17.3,35.7,N/A,Rain-Thunderstorm,Thunderstorms and Rain,190,2013-07-18 19:44:00
3:49 PM,78.8,71.6,78,30.11,4.0,SSW,12.7,35.7,N/A,Rain-Thunderstorm,Light Thunderstorms and Rain,210,2013-07-18 19:49:00
3:57 PM,77.0,73.4,89,30.12,6.0,SSW,9.2,-,N/A,Rain-Thunderstorm,Light Thunderstorms and Rain,200,2013-07-18 19:57:00
3:58 PM,77.0,73.4,89,30.13,6.0,SSW,9.2,-,0.03,Rain-Thunderstorm,Light Thunderstorms and Rain,200,2013-07-18 19:58:00
4:03 PM,77.0,73.4,89,30.11,1.0,SSW,8.1,-,N/A,Rain-Thunderstorm,Heavy Thunderstorms and Rain,210,2013-07-18 20:03:00
4:08 PM,77.0,71.6,83,30.11,0.5,WSW,4.6,-,N/A,Rain-Thunderstorm,Heavy Thunderstorms and Rain,240,2013-07-18 20:08:00
4:13 PM,77.0,71.6,83,30.11,1.0,West,6.9,-,N/A,Rain-Thunderstorm,Heavy Thunderstorms and Rain,260,2013-07-18 20:13:00
4:18 PM,77.0,73.4,89,30.10,1.5,West,8.1,-,N/A,Rain-Thunderstorm,Thunderstorms and Rain,280,2013-07-18 20:18:00
4:23 PM,77.0,73.4,89,30.10,4.0,SSW,5.8,-,N/A,Rain-Thunderstorm,Light Thunderstorms and Rain,200,2013-07-18 20:23:00
4:28 PM,77.0,73.4,89,30.09,8.0,South,5.8,-,N/A,Rain-Thunderstorm,Light Rain,170,2013-07-18 20:28:00
4:42 PM,78.8,75.2,89,30.08,10.0,SW,4.6,-,N/A,,Scattered Clouds,230,2013-07-18 20:42:00
4:58 PM,78.6,74.8,88,30.09,10.0,West,4.6,-,0.50,,Partly Cloudy,280,2013-07-18 20:58:00
5:58 PM,84.2,76.3,77,30.07,10.0,SW,2.3,-,N/A,,Clear,220,2013-07-18 21:58:00
6:58 PM,85.8,76.6,74,30.06,10.0,SW,4.6,-,N/A,,Clear,220,2013-07-18 22:58:00
7:58 PM,84.9,76.5,76,30.07,10.0,SSW,3.5,-,N/A,,Clear,200,2013-07-18 23:58:00
8:58 PM,83.5,75.4,76,30.09,6.0,SSW,1.2,-,N/A,,Haze,200,2013-07-19 00:58:00
9:58 PM,82.0,75.6,81,30.10,6.0,SSW,3.5,-,N/A,,Haze,200,2013-07-19 01:58:00
10:58 PM,82.0,75.2,80,30.11,10.0,SSW,6.9,-,N/A,,Mostly Cloudy,200,2013-07-19 02:58:00
11:58 PM,81.0,74.5,81,30.11,10.0,SW,8.1,-,N/A,,Mostly Cloudy,220,2013-07-19 03:58:00